Wind_Speed
3 4 1 3 10 12 7 4 2 4 8 13 10 5 3 2 4 7 10 13 15 18 21 22 25 27 28 30 34 36 38 40 45 45 41 26 24 20 18 17 16 15 14 12
0 4 6 7 13 11 9 11 13 10 7 18 9 5 4 4 6 8 11 13 15 18 20 23 26 28 31 33 36 38 39 45 44 46 33 26 23 20 20 19 18 17 15 13
3 1 3 3 8 8 9 17 7 10 6 13 10 11 8 9 9 11 12 13 15 17 20 23 25 28 32 35 36 39 44 44 44 44 31 26 22 20 22 22 22 20 18 18
1 2 3 2 8 3 11 15 15 11 13 11 12 11 8 8 11 12 11 13 15 17 20 23 25 28 31 34 36 42 45 44 43 41 32 25 23 24 24 25 27 26 25 23
2 3 4 3 6 6 5 9 18 14 18 16 18 7 4 11 9 8 9 13 15 18 21 23 26 29 32 35 39 44 44 41 40 36 32 26 24 24 25 27 29 29 30 25
2 1 3 3 13 18 10 4 21 20 18 18 17 5 5 11 8 9 11 12 14 18 21 23 26 29 32 36 41 43 43 39 43 36 31 27 23 23 24 28 31 31 32 29
4 3 4 8 23 13 1 4 22 19 17 15 7 8 16 6 6 10 12 12 15 18 21 23 26 29 33 37 40 40 40 39 42 37 31 27 24 24 25 30 32 34 37 33
4 3 2 21 8 4 5 14 17 17 15 14 13 7 4 4 6 9 11 12 15 18 20 23 26 29 33 36 37 38 40 41 40 38 35 29 27 26 27 30 34 37 37 35
2 2 11 16 15 10 7 14 14 15 16 12 10 4 2 4 7 9 11 12 15 18 19 22 25 29 32 34 36 37 41 43 40 39 38 35 32 29 29 31 34 36 36 33
4 3 18 13 7 2 13 15 18 15 13 10 7 2 2 3 7 8 10 11 14 16 18 21 24 26 29 32 34 36 40 43 42 40 38 38 35 33 30 30 33 33 37 34
3 4 16 1 7 20 21 18 18 14 10 7 4 1 2 4 6 8 10 11 13 15 17 20 22 25 28 31 33 36 39 41 44 41 36 35 34 33 31 29 29 31 33 37
2 14 12 20 17 18 21 21 18 15 6 3 1 1 2 3 5 7 9 10 12 14 15 18 21 24 26 29 32 34 38 40 43 44 39 33 30 29 28 27 28 30 29 31
7 13 17 18 17 17 23 22 15 10 5 1 3 2 1 2 4 7 9 9 11 12 14 16 19 21 24 27 29 32 35 37 40 44 43 37 32 30 30 29 28 27 28 28
9 11 7 9 16 20 19 13 7 3 2 5 5 3 1 1 4 6 8 10 11 11 13 14 17 19 22 24 26 28 31 33 37 40 43 42 36 32 30 29 28 28 23 23
10 9 10 13 17 20 16 11 7 8 10 8 6 4 2 2 3 5 7 9 10 10 11 13 15 17 19 21 23 25 28 31 32 35 39 43 42 35 32 30 28 25 22 21
10 14 14 16 19 18 16 12 13 12 10 8 7 7 5 3 3 4 5 6 8 9 10 11 12 14 16 18 20 22 24 26 27 30 34 39 43 44 39 34 34 31 28 24
21 23 20 19 20 20 17 9 9 9 9 8 6 6 4 3 3 3 4 5 7 9 9 9 11 12 14 15 17 19 21 22 25 27 31 34 37 40 43 43 38 40 42 40
17 17 15 15 16 17 16 11 7 7 5 5 6 5 4 4 4 3 4 5 6 7 7 7 9 10 11 12 14 16 18 19 21 24 26 28 31 33 37 40 41 39 36 34
21 21 20 18 16 16 15 14 10 5 4 3 4 4 4 4 3 4 4 5 5 7 7 6 7 8 8 10 11 12 14 16 18 19 21 22 24 27 30 33 35 37 37 37
25 23 22 21 19 18 17 14 11 7 5 4 3 3 2 2 2 2 3 3 4 5 7 7 6 6 7 7 8 9 10 12 13 15 17 18 19 21 24 25 27 29 32 34
20 25 25 23 23 20 20 18 14 8 5 3 1 2 3 4 2 1 2 2 3 4 5 5 5 5 4 5 5 6 7 7 9 10 12 14 15 16 17 19 21 22 24 26
21 16 19 24 23 22 22 21 20 17 11 6 4 3 3 4 3 2 2 2 2 3 3 4 4 4 4 4 3 3 3 4 4 5 6 8 10 11 13 13 14 16 18 19
15 14 16 10 20 23 21 21 22 22 19 16 12 8 6 5 4 4 4 4 4 4 5 5 4 4 4 3 3 2 1 1 1 2 3 3 4 6 7 9 10 11 11 13
13 12 11 14 7 9 20 22 22 22 20 18 18 15 12 9 7 6 5 6 6 7 6 6 6 6 5 4 4 3 3 3 3 2 1 1 1 1 2 3 5 6 8 9
11 12 10 5 6 10 12 11 14 21 25 22 17 15 15 16 14 11 9 8 8 7 7 8 9 9 9 7 6 6 6 6 6 6 5 5 4 4 3 3 2 3 4 6
11 12 11 11 8 9 10 11 11 11 13 22 23 20 17 15 15 15 14 12 10 9 10 9 8 9 10 11 10 11 10 10 10 9 9 9 8 8 8 7 7 7 7 7
9 10 9 7 7 7 9 11 12 12 13 10 17 22 22 21 18 15 14 14 13 12 11 10 9 10 11 11 10 12 13 14 14 13 13 12 12 11 11 11 12 12 12 11
Wind_Direction
303 279 293 305 353 3 32 340 36 23 43 5 9 13 34 2 356 345 339 345 347 347 351 353 356 0 2 1 358 354 353 354 359 354 352 1 8 9 8 2 355 351 349 339
165 24 148 62 19 14 24 31 52 55 46 358 7 19 5 345 335 334 341 346 349 352 355 358 2 3 3 359 357 355 355 3 359 354 3 11 14 16 17 13 14 19 16 13
121 14 151 49 17 22 50 39 30 39 351 355 7 358 345 334 330 333 344 351 356 358 359 3 3 2 2 359 357 358 4 2 358 357 13 20 23 26 25 29 35 36 35 37
284 261 73 82 27 23 66 46 31 27 11 358 336 318 329 334 330 339 351 359 3 4 6 6 5 6 4 3 2 5 6 2 360 7 23 28 33 36 40 45 46 50 51 53
347 58 100 45 16 350 350 47 24 7 359 354 343 327 46 358 352 358 2 6 12 7 9 8 8 7 8 8 8 9 5 6 7 20 30 35 41 46 51 55 58 59 49 55
350 43 81 20 330 321 291 71 6 357 354 349 343 30 30 6 20 12 10 16 13 12 12 9 10 11 11 13 13 11 8 13 14 28 38 42 47 56 63 62 64 62 59 66
16 53 87 345 337 326 63 332 331 342 340 343 342 299 301 341 11 7 16 18 12 16 12 10 12 14 15 17 17 12 14 16 16 34 46 50 58 67 71 70 72 69 67 67
342 28 49 354 356 47 316 309 320 332 337 335 334 357 62 50 13 13 18 17 16 17 14 12 13 16 18 19 20 17 20 20 18 38 49 58 67 75 73 74 75 75 69 72
307 306 335 323 293 281 310 313 325 327 336 342 350 9 48 21 10 16 19 17 16 17 15 14 16 17 19 21 22 25 24 23 23 39 53 60 67 75 75 75 78 79 74 73
301 21 330 323 173 5 338 327 334 340 339 349 345 348 317 3 9 16 19 17 17 16 18 15 18 19 21 23 26 29 30 27 27 37 52 60 64 69 74 75 79 80 84 82
287 328 345 100 249 318 334 341 340 342 339 348 351 289 312 357 16 18 20 21 19 18 18 18 19 20 23 25 27 32 36 32 31 36 52 58 62 62 64 70 77 84 82 90
294 299 289 280 315 333 327 337 337 328 334 310 25 237 296 355 17 25 24 25 21 21 20 21 22 23 26 28 28 33 39 38 37 37 50 61 70 74 66 73 73 79 87 93
262 298 283 296 321 342 332 333 326 310 307 162 144 157 254 355 15 30 27 27 24 24 24 24 25 25 28 31 31 34 40 42 42 44 46 59 69 76 77 76 77 80 87 86
354 328 322 339 331 347 345 343 333 329 129 119 114 119 187 36 34 36 25 27 25 25 26 25 27 29 30 33 34 38 43 45 47 48 49 57 69 77 79 79 76 85 87 90
33 21 344 348 360 5 8 21 51 99 106 100 97 92 94 80 52 39 34 37 35 33 30 29 28 31 32 34 38 41 45 48 50 54 56 58 63 70 76 76 79 83 87 83
20 25 25 20 16 19 30 64 76 80 79 84 89 101 104 78 50 46 50 40 32 34 31 32 33 34 35 35 40 45 47 51 52 56 58 60 62 65 69 75 78 83 85 85
31 23 22 23 22 24 28 50 78 79 76 81 87 95 87 53 38 40 41 33 30 31 33 33 36 36 38 38 40 46 51 53 55 58 59 61 63 63 66 73 81 86 86 86
56 52 43 32 26 27 35 50 90 99 77 75 71 51 33 55 58 48 39 36 33 28 30 33 38 41 42 42 43 44 49 55 58 60 63 64 66 68 70 71 75 82 85 88
53 53 49 47 43 39 38 44 55 68 73 54 45 55 56 51 57 48 54 61 56 32 33 34 36 42 46 44 46 47 47 52 58 63 65 68 70 71 73 76 78 79 81 83
47 51 53 52 50 47 43 39 39 45 62 76 59 49 38 12 6 34 63 53 30 23 24 32 36 38 42 48 47 48 50 53 56 62 68 70 72 76 78 78 81 83 84 84
38 38 41 46 50 50 46 42 38 35 28 9 332 316 330 346 347 346 65 66 28 11 7 13 23 30 38 52 57 54 56 55 54 56 65 73 76 78 81 86 88 86 88 89
35 32 30 35 39 47 48 45 43 39 34 27 23 348 312 303 297 288 237 239 292 332 346 334 339 355 3 19 37 57 67 68 71 69 62 63 75 86 91 91 92 96 97 97
9 13 25 19 33 38 43 46 42 39 36 34 29 22 15 5 314 270 269 266 278 294 293 298 296 302 317 333 346 356 1 38 80 92 93 83 79 81 86 98 107 109 107 110
358 357 7 17 6 7 33 38 38 37 31 28 27 24 19 10 4 1 335 306 288 279 277 278 283 294 301 300 290 288 283 284 282 272 241 185 157 116 113 113 117 122 129 134
6 4 354 21 36 22 7 355 10 33 34 28 26 24 24 22 18 7 346 325 316 304 289 275 268 268 273 278 282 272 261 254 254 265 267 261 253 235 223 217 212 190 174 168
347 351 354 348 309 315 343 356 358 350 351 11 21 20 18 13 13 13 12 7 353 328 303 290 280 278 275 270 266 259 259 259 258 257 254 253 254 254 254 251 241 232 227 223
326 337 345 346 347 331 330 321 323 331 352 349 337 0 11 12 6 2 3 5 6 3 356 339 310 285 274 273 272 264 259 259 260 261 262 261 258 251 249 249 251 252 249 245
Height
1557 1557 1557 1557 1551 1546 1542 1543 1537 1545 1546 1544 1541 1540 1540 1540 1539 1538 1536 1534 1532 1528 1525 1520 1515 1510 1504 1497 1488 1480 1471 1462 1450 1439 1428 1419 1411 1403 1397 1392 1387 1382 1377 1372
1554 1555 1554 1556 1555 1551 1548 1546 1546 1546 1547 1550 1546 1544 1543 1542 1541 1539 1537 1535 1533 1530 1525 1520 1515 1510 1504 1496 1487 1479 1471 1459 1449 1437 1426 1417 1410 1404 1398 1392 1387 1381 1376 1370
1549 1552 1554 1550 1563 1561 1558 1558 1556 1554 1559 1553 1548 1546 1545 1544 1542 1541 1539 1537 1534 1531 1526 1522 1517 1511 1504 1496 1488 1479 1468 1459 1448 1437 1425 1417 1411 1405 1399 1394 1388 1382 1376 1371
1551 1548 1548 1562 1566 1564 1561 1563 1562 1559 1558 1555 1553 1549 1546 1545 1543 1542 1540 1539 1536 1532 1528 1523 1518 1513 1506 1498 1489 1478 1468 1459 1449 1436 1426 1419 1414 1407 1402 1397 1391 1385 1381 1376
1556 1548 1558 1562 1569 1568 1566 1564 1565 1562 1559 1555 1551 1547 1547 1546 1544 1544 1542 1540 1538 1533 1530 1525 1520 1515 1508 1500 1490 1479 1470 1460 1450 1437 1428 1423 1417 1412 1407 1402 1396 1391 1387 1382
1563 1554 1555 1573 1571 1567 1565 1561 1566 1564 1561 1558 1553 1545 1548 1547 1546 1546 1544 1542 1539 1536 1532 1527 1523 1517 1510 1502 1491 1483 1473 1463 1453 1440 1432 1427 1422 1417 1413 1408 1403 1399 1394 1390
1567 1562 1570 1576 1569 1564 1561 1574 1568 1566 1563 1560 1557 1555 1550 1549 1549 1548 1547 1544 1541 1539 1534 1530 1525 1519 1512 1505 1497 1488 1479 1468 1457 1445 1437 1433 1428 1423 1420 1415 1411 1406 1402 1400
1575 1570 1573 1576 1571 1569 1577 1573 1570 1566 1562 1559 1556 1552 1551 1551 1551 1550 1548 1546 1543 1541 1537 1532 1527 1522 1516 1509 1504 1494 1484 1473 1461 1452 1444 1439 1434 1431 1428 1423 1419 1414 1413 1410
1585 1581 1580 1579 1578 1576 1576 1572 1568 1564 1560 1558 1555 1554 1553 1553 1553 1552 1550 1548 1546 1543 1539 1535 1531 1525 1520 1514 1508 1500 1490 1478 1467 1459 1451 1446 1441 1438 1436 1432 1428 1424 1422 1421
1583 1581 1578 1574 1573 1574 1573 1569 1565 1562 1559 1557 1556 1555 1556 1555 1555 1554 1553 1550 1548 1545 1543 1538 1535 1530 1525 1520 1514 1507 1497 1486 1476 1464 1459 1453 1450 1447 1444 1441 1438 1435 1432 1432
1582 1580 1575 1573 1573 1571 1568 1566 1562 1560 1558 1557 1556 1556 1557 1557 1557 1556 1555 1553 1551 1548 1545 1541 1538 1534 1529 1524 1519 1513 1504 1495 1484 1474 1467 1462 1458 1455 1453 1451 1449 1446 1445 1443
1585 1583 1583 1575 1570 1569 1565 1562 1559 1556 1557 1557 1557 1558 1558 1559 1558 1558 1557 1555 1553 1551 1548 1545 1542 1538 1534 1529 1524 1519 1511 1504 1494 1485 1476 1471 1467 1464 1463 1461 1460 1457 1456 1455
1583 1579 1577 1572 1568 1567 1562 1559 1556 1554 1555 1556 1557 1559 1559 1560 1560 1559 1558 1557 1555 1553 1551 1548 1545 1542 1539 1534 1530 1525 1519 1514 1506 1498 1488 1481 1476 1473 1471 1472 1470 1468 1467 1467
1580 1578 1573 1571 1568 1564 1560 1556 1554 1553 1554 1556 1558 1559 1561 1561 1562 1561 1560 1559 1557 1556 1553 1551 1549 1546 1543 1540 1536 1532 1528 1522 1516 1510 1502 1494 1488 1483 1481 1479 1477 1477 1477 1477
1578 1577 1574 1571 1567 1563 1559 1556 1555 1555 1556 1558 1560 1561 1562 1563 1563 1563 1562 1561 1559 1558 1556 1554 1552 1550 1547 1545 1542 1538 1534 1530 1526 1521 1515 1508 1501 1495 1491 1488 1486 1486 1486 1486
1579 1576 1573 1570 1567 1563 1560 1559 1559 1559 1560 1561 1562 1563 1564 1564 1565 1565 1564 1563 1562 1560 1559 1557 1555 1554 1552 1549 1547 1544 1541 1538 1535 1531 1526 1520 1514 1509 1503 1499 1496 1495 1493 1493
1577 1573 1572 1569 1567 1565 1563 1562 1562 1563 1563 1564 1565 1566 1566 1566 1566 1566 1565 1565 1564 1562 1561 1560 1558 1557 1555 1553 1552 1549 1547 1545 1542 1539 1535 1531 1527 1522 1517 1512 1509 1508 1506 1506
1585 1582 1579 1575 1571 1568 1566 1564 1564 1565 1566 1566 1567 1567 1568 1568 1568 1567 1567 1566 1565 1564 1563 1562 1561 1560 1559 1557 1555 1554 1552 1551 1548 1545 1543 1541 1537 1535 1531 1527 1523 1521 1519 1519
1588 1584 1580 1576 1574 1572 1569 1567 1566 1566 1567 1568 1568 1568 1568 1568 1568 1568 1568 1567 1567 1566 1565 1564 1563 1562 1561 1560 1559 1558 1556 1555 1554 1552 1550 1549 1547 1545 1542 1540 1537 1535 1533 1531
1592 1588 1584 1580 1577 1573 1571 1570 1569 1569 1568 1568 1569 1569 1569 1569 1569 1569 1568 1568 1568 1567 1566 1565 1564 1564 1563 1563 1562 1561 1560 1559 1558 1557 1557 1555 1554 1552 1551 1549 1548 1546 1545 1543
1595 1592 1588 1584 1580 1577 1575 1573 1571 1570 1569 1569 1569 1569 1569 1568 1568 1569 1569 1568 1568 1567 1566 1566 1566 1565 1565 1564 1564 1564 1563 1563 1562 1561 1560 1560 1560 1559 1558 1557 1556 1555 1554 1553
1598 1595 1593 1590 1586 1582 1579 1577 1574 1573 1571 1570 1569 1569 1568 1568 1568 1568 1568 1568 1568 1567 1567 1566 1566 1565 1565 1565 1565 1565 1565 1565 1564 1564 1564 1563 1563 1563 1563 1562 1562 1562 1562 1561
1599 1597 1595 1593 1591 1588 1585 1581 1578 1576 1574 1573 1571 1570 1569 1567 1567 1567 1567 1567 1567 1567 1567 1566 1566 1565 1565 1565 1565 1565 1565 1565 1565 1565 1565 1566 1566 1566 1566 1566 1566 1566 1566 1566
1599 1597 1596 1594 1593 1592 1589 1586 1583 1580 1578 1576 1575 1573 1571 1569 1568 1567 1566 1566 1565 1565 1565 1565 1565 1565 1565 1565 1565 1565 1565 1565 1565 1565 1565 1566 1566 1567 1567 1568 1568 1569 1569 1570
1600 1598 1596 1595 1594 1593 1591 1590 1588 1585 1582 1580 1577 1575 1573 1572 1570 1568 1567 1565 1565 1564 1563 1563 1563 1563 1564 1563 1563 1563 1564 1564 1564 1564 1564 1565 1566 1566 1567 1567 1568 1569 1570 1571
1599 1598 1596 1595 1593 1593 1592 1591 1589 1587 1586 1584 1581 1578 1575 1573 1572 1570 1568 1565 1563 1562 1561 1561 1561 1560 1560 1561 1561 1561 1561 1562 1562 1562 1562 1563 1564 1565 1565 1566 1566 1567 1568 1569
1598 1597 1596 1595 1594 1593 1591 1590 1589 1588 1586 1585 1584 1581 1579 1576 1573 1571 1569 1567 1564 1562 1560 1559 1558 1557 1557 1557 1557 1558 1558 1558 1559 1559 1560 1560 1561 1562 1562 1563 1564 1565 1566 1567